[[{"header":{"parameterUnit":"m.s-1","parameterCategory":1,"la1":30.2991,"la2":30.254,"lo1":-89.0895,"lo2":-89.0444,"dy":0.0017,"dx":0.0017,"nx":28,"ny":28,"refTime":"2024-04-08T09:00:00:Z","depth":0,"parameterNumber":2,"parameterNumberName":"U-component_of_WINDS"},"data":[0,0,0,0,0,0,0,0,0,0,0,0,0,0,0,0,0,0,0,0,0,0,0,0,0,0,0,0,0,0,0,0,0,0,0,0,0,0,0,0,0,0,0,0,0,0,0,0,0,0,0,0,0,0,0,0,0,0,-6.4879,-6.4881,0,-6.4975,-6.4976,-6.4977,-6.4932,-6.4929,-6.4927,-6.4925,-6.5019,-6.5024,-6.5028,0,0,0,0,0,0,0,0,0,0,0,0,0,-6.4656,-6.466,-6.4879,-6.4881,-6.4882,-6.4975,-6.4976,-6.4977,-6.4932,-6.4929,-6.4926,-6.4924,-6.5018,-6.5023,-6.5029,0,0,0,0,0,0,0,0,0,0,0,0,0,-6.4752,-6.4662,-6.4879,-6.4871,-6.4871,-6.4974,-6.4976,-6.4978,-6.4933,-6.4929,-6.4926,-6.4922,-6.5016,-6.5023,-6.503,-6.5146,0,0,-6.5052,-6.5055,0,0,0,0,0,0,0,0,-6.4747,-6.476,-6.4871,-6.4871,-6.4872,-6.4938,-6.4932,-6.5034,-6.4934,-6.4909,-6.4925,-6.492,-6.4995,-6.5003,-6.5029,-6.5151,-6.5155,-6.5052,-6.5057,-6.506,-6.5062,0,0,0,0,0,0,0,-6.474,-6.4756,-6.4917,-6.4872,-6.4873,-6.4861,-6.4871,-6.4951,-6.4971,-6.4911,-6.4908,-6.492,-6.4994,-6.5022,-6.5031,-6.5156,-6.5052,-6.5058,-6.5063,-6.5066,-6.5378,-6.5382,0,0,0,0,0,0,-6.4734,-6.4751,-6.4914,-6.492,-6.4799,-6.4868,-6.4879,-6.492,-6.497,-6.4974,-6.4923,-6.4918,-6.5012,-6.5023,-6.5034,-6.5173,-6.506,-6.5066,-6.507,-6.5374,-6.5379,-6.5384,0,0,0,0,0,0,-6.473,-6.4749,-6.491,-6.4835,-6.4854,-6.4876,-6.4922,-6.4924,-6.4952,-6.4979,-6.4982,-6.4948,-6.501,-6.5024,-6.5119,-6.5176,-6.5069,-6.5076,-6.537,-6.5376,-6.5381,-6.5453,0,0,0,0,0,0,-6.4723,-6.4748,-6.4793,-6.4836,-6.4859,-6.4994,-6.4926,-6.4928,-6.4965,-6.4959,-6.5004,-6.5007,-6.5008,-6.5109,-6.5126,-6.5184,-6.5082,-6.5365,-6.5372,-6.538,-6.5445,-6.546,-6.5473,0,0,0,0,0,-6.4715,-6.4808,-6.4795,-6.4815,-6.4915,-6.4997,-6.501,-6.501,-6.497,-6.5014,-6.5032,-6.5006,-6.5168,-6.5119,-6.5138,-6.5199,-6.5361,-6.537,-6.5379,-6.5439,-6.5457,-6.5473,0,0,0,0,0,0,-6.4769,-6.4814,-6.48,-6.4909,-6.495,-6.499,-6.5046,-6.5029,-6.5081,-6.5073,-6.5069,-6.508,-6.5178,-6.5198,-6.5143,-6.5314,-6.5258,-6.5271,-6.5297,-6.5315,-6.5328,-6.532,-6.5087,0,0,0,0,0,-6.4794,-6.4858,-6.4893,-6.4987,-6.5008,-6.5024,-6.506,-6.5056,-6.5098,-6.5114,-6.5139,-6.518,-6.5239,-6.5279,-6.5335,-6.5449,-6.5457,-6.5501,-6.5515,-6.5526,-6.5536,-6.5597,-6.5616,-6.5413,-6.5413,-6.5413,0,0,-6.4846,-6.4878,-6.4918,-6.4999,-6.503,-6.5095,-6.5039,-6.511,-6.5158,-6.5125,-6.5215,-6.5236,-6.5281,-6.5386,-6.5433,-6.5405,-6.5595,-6.5538,-6.5546,-6.5551,-6.5609,-6.5628,-6.5645,-6.5419,-6.5418,-6.5417,0,0,-6.4972,-6.5004,-6.5085,-6.5118,-6.5167,-6.5177,-6.5197,-6.524,-6.5252,-6.5343,-6.532,-6.5377,-6.548,-6.5513,-6.5544,-6.5686,-6.5663,-6.5704,-6.5776,-6.5836,-6.5852,-6.5866,-6.5914,-6.5932,-6.5716,-6.5716,-6.5716,0,-6.5029,-6.5128,-6.5128,-6.5202,-6.5238,-6.5213,-6.5294,-6.5326,-6.539,-6.5415,-6.5384,-6.5514,-6.5542,-6.5654,-6.5689,-6.5715,-6.5736,-6.5697,-6.585,-6.5864,-6.5877,-6.5923,-6.5942,-6.572,-6.572,-6.5719,-6.5719,0,-6.5195,-6.5264,-6.5324,-6.5387,-6.543,-6.5507,-6.5519,-6.5562,-6.5556,-6.5569,-6.5663,-6.5697,-6.576,-6.5787,-6.5781,-6.5898,-6.5879,-6.585,-6.5792,-6.5901,-6.5944,-6.5962,-6.5727,-6.5725,-6.5724,-6.5723,0,0,-6.5355,-6.542,-6.5442,-6.547,-6.5523,-6.5576,-6.5652,-6.5715,-6.5752,-6.5798,-6.586,-6.595,-6.5923,-6.5957,-6.5955,-6.6008,-6.6116,-6.5971,-6.5972,-6.5995,-6.6246,-6.6266,-6.6286,-6.6103,-6.6107,-6.6109,-6.6241,0,-6.5484,-6.5618,-6.5621,-6.5744,-6.5807,-6.5785,-6.5852,-6.5891,-6.5907,-6.5962,-6.5978,-6.6041,-6.6002,-6.6022,-6.6074,-6.6092,-6.6166,-6.6083,-6.616,-6.6162,-6.6146,-6.631,-6.6331,-6.6453,-6.6258,-6.6261,-6.6263,0,-6.5651,-6.5703,-6.5832,-6.5876,-6.5903,-6.5963,-6.6021,-6.6074,-6.6119,-6.6126,-6.6166,-6.6157,-6.6234,-6.6177,-6.6283,-6.6226,-6.6259,-6.6273,-6.6278,-6.6282,-6.6217,-6.6316,-6.6493,-6.651,-6.6291,-6.6288,-6.6286,0,-6.5752,-6.5855,-6.5945,-6.5971,-6.6025,-6.6068,-6.6092,-6.6133,-6.6171,-6.6222,-6.6246,-6.6306,-6.6337,-6.6383,-6.639,-6.6348,-6.6495,-6.6439,-6.6502,-6.6502,-6.6531,-6.6528,-6.6713,-6.6557,-6.6557,-6.6556,-6.6556,0,-6.5893,-6.5972,-6.5991,-6.6046,-6.6134,-6.6139,-6.6225,-6.6247,-6.6284,-6.6342,-6.6328,-6.6383,-6.639,-6.6447,-6.6453,-6.6538,-6.6553,-6.656,-6.656,-6.656,-6.6559,-6.6578,-6.6569,-6.6561,-6.656,-6.6559,-6.6559,0,-6.6019,-6.6036,-6.6132,-6.6177,-6.619,-6.6253,-6.629,-6.6343,-6.6358,-6.6432,-6.6449,-6.6473,-6.6539,-6.6551,-6.6629,-6.6633,-6.6735,-6.6728,-6.672,-6.6718,-6.6779,-6.6772,-6.6979,-6.7006,-6.6836,-6.6837,-6.6839,0,-6.6107,-6.6167,-6.6219,-6.6258,-6.6285,-6.6347,-6.6386,-6.6393,-6.6434,-6.649,-6.6535,-6.6601,-6.6652,-6.6759,-6.6782,-6.6842,-6.6834,-6.6903,-6.6843,-6.684,-6.6832,-6.6827,-6.6833,-6.6913,-6.6915,-6.6917,-6.6918,0,-6.626,-6.6266,-6.6322,-6.6383,-6.643,-6.6478,-6.6523,-6.6555,-6.6568,-6.6615,-6.6683,-6.6724,-6.6804,-6.6868,-6.6928,-6.6952,-6.6937,-6.6938,-6.6955,-6.6953,-6.6945,-6.6948,-6.6748,-6.6932,-6.693,-6.6929,-6.6929,-6.6928,-6.6368,-6.642,-6.6465,-6.6529,-6.6564,-6.6607,-6.6658,-6.6681,-6.6738,-6.6804,-6.6806,-6.6879,-6.6923,-6.7002,-6.7031,-6.7088,-6.7066,-6.7091,-6.7097,-6.7102,-6.7107,-6.6939,-6.7099,-6.7099,-6.7099,-6.7098,-6.7098,0,-6.6518,-6.6546,-6.6606,-6.667,-6.672,-6.6704,-6.6754,-6.6796,-6.6862,-6.6904,-6.6956,-6.7035,-6.7097,-6.7127,-6.7188,-6.7229,-6.7223,-6.7244,-6.724,-6.7245,-6.7124,-6.7102,-6.7248,-6.7248,-6.7248,-6.7248,-6.7247,-6.7247,-6.6602,-6.6689,-6.6701,-6.6806,-6.6833,-6.6906,-6.6936,-6.6975,-6.7009,-6.7097,-6.7149,-6.7169,-6.7206,-6.727,-6.7327,-6.7334,-6.7356,-6.738,-6.7383,-6.7269,-6.7254,-6.7239,-6.7218,-6.7385,-6.7386,-6.7499,-6.75,-6.75]},{"header":{"parameterUnit":"m.s-1","parameterCategory":1,"la1":30.2991,"la2":30.254,"lo1":-89.0895,"lo2":-89.0444,"dy":0.0017,"dx":0.0017,"nx":28,"ny":28,"refTime":"2024-04-08T09:00:00:Z","depth":0,"parameterNumber":3,"parameterNumberName":"V-component_of_WINDS"},"data":[0,0,0,0,0,0,0,0,0,0,0,0,0,0,0,0,0,0,0,0,0,0,0,0,0,0,0,0,0,0,0,0,0,0,0,0,0,0,0,0,0,0,0,0,0,0,0,0,0,0,0,0,0,0,0,0,0,0,3.324,3.324,0,3.3234,3.3234,3.3234,3.324,3.324,3.324,3.3241,3.3229,3.3228,3.3227,0,0,0,0,0,0,0,0,0,0,0,0,0,3.3256,3.3256,3.324,3.324,3.324,3.3234,3.3234,3.3234,3.324,3.324,3.3241,3.3241,3.3229,3.3228,3.3227,0,0,0,0,0,0,0,0,0,0,0,0,0,3.3249,3.3255,3.324,3.3243,3.3243,3.3234,3.3234,3.3234,3.324,3.324,3.3241,3.3241,3.3229,3.3228,3.3227,3.3214,0,0,3.3225,3.3224,0,0,0,0,0,0,0,0,3.3249,3.3248,3.3243,3.3243,3.3243,3.3238,3.3235,3.3227,3.324,3.3241,3.3241,3.3241,3.3231,3.323,3.3228,3.3213,3.3213,3.3225,3.3224,3.3224,3.3224,0,0,0,0,0,0,0,3.325,3.3249,3.3238,3.3242,3.3243,3.3243,3.3243,3.3233,3.3234,3.3241,3.3241,3.3241,3.3231,3.3229,3.3228,3.3213,3.3225,3.3224,3.3223,3.3223,3.319,3.319,0,0,0,0,0,0,3.3251,3.3249,3.3238,3.3238,3.3247,3.3243,3.3242,3.3239,3.3234,3.3233,3.324,3.3241,3.323,3.3229,3.3227,3.3213,3.3224,3.3223,3.3222,3.3191,3.319,3.319,0,0,0,0,0,0,3.3251,3.325,3.3238,3.3244,3.3242,3.3242,3.3239,3.3239,3.3236,3.3234,3.3233,3.3238,3.323,3.3228,3.3218,3.3213,3.3223,3.3222,3.3191,3.319,3.319,3.3184,0,0,0,0,0,0,3.3251,3.325,3.3245,3.3243,3.3242,3.323,3.3238,3.3238,3.3235,3.3236,3.3231,3.3231,3.323,3.322,3.3218,3.3212,3.3221,3.3191,3.3191,3.319,3.3185,3.3183,3.3182,0,0,0,0,0,3.3252,3.3242,3.3245,3.3243,3.3236,3.323,3.3229,3.323,3.3235,3.323,3.3229,3.3231,3.3214,3.3219,3.3216,3.321,3.3192,3.3191,3.319,3.3185,3.3183,3.3182,0,0,0,0,0,0,3.324,3.3241,3.3245,3.3234,3.3232,3.3231,3.3225,3.3228,3.3223,3.3224,3.3224,3.3223,3.3213,3.321,3.3216,3.3199,3.3204,3.3202,3.32,3.3199,3.3198,3.3198,3.322,0,0,0,0,0,3.3237,3.3232,3.3233,3.3224,3.3223,3.3224,3.3221,3.3223,3.322,3.3219,3.3217,3.3213,3.3207,3.3203,3.3197,3.3185,3.3184,3.3179,3.3178,3.3177,3.3176,3.3171,3.317,3.3187,3.3187,3.3187,0,0,3.3228,3.3229,3.3225,3.3222,3.322,3.3216,3.3223,3.3217,3.3213,3.3217,3.3209,3.3207,3.3203,3.3193,3.3188,3.319,3.3171,3.3176,3.3175,3.3175,3.317,3.3169,3.3167,3.3187,3.3187,3.3187,0,0,3.3211,3.3211,3.3204,3.3204,3.3203,3.3205,3.3203,3.3202,3.3202,3.3194,3.3198,3.3193,3.3182,3.318,3.3177,3.3164,3.3166,3.3162,3.3155,3.315,3.3149,3.3148,3.3144,3.3142,3.3161,3.316,3.316,0,3.3201,3.3195,3.32,3.3195,3.3193,3.32,3.3193,3.3192,3.3188,3.3187,3.319,3.3179,3.3176,3.3167,3.3164,3.3161,3.316,3.3162,3.3149,3.3148,3.3147,3.3143,3.3142,3.316,3.316,3.316,3.316,0,3.3183,3.3179,3.3174,3.3173,3.3171,3.3165,3.3169,3.3166,3.3169,3.317,3.3163,3.316,3.3156,3.3153,3.3154,3.3144,3.3146,3.3149,3.3154,3.3145,3.3141,3.314,3.316,3.316,3.316,3.316,0,0,3.3156,3.3161,3.3159,3.316,3.3161,3.3158,3.3153,3.3151,3.3149,3.3147,3.3143,3.3135,3.314,3.3137,3.3138,3.3134,3.3125,3.3138,3.3138,3.3136,3.3116,3.3114,3.3112,3.3127,3.3127,3.3127,3.3116,0,3.314,3.3133,3.3139,3.313,3.3128,3.3135,3.3131,3.3131,3.3133,3.313,3.3131,3.3127,3.3132,3.313,3.3127,3.3127,3.3121,3.3128,3.3123,3.3123,3.3124,3.311,3.3107,3.3097,3.3115,3.3115,3.3115,0,3.312,3.3121,3.3113,3.3118,3.3117,3.3113,3.3113,3.311,3.3111,3.3112,3.3111,3.3114,3.311,3.3116,3.3109,3.3114,3.3112,3.3113,3.3112,3.3111,3.3118,3.3109,3.3094,3.3092,3.3112,3.3112,3.3113,0,3.3103,3.3101,3.3097,3.3098,3.3102,3.31,3.3102,3.3103,3.3102,3.3102,3.3101,3.3099,3.3098,3.3096,3.3099,3.3103,3.3093,3.3099,3.3094,3.3094,3.3091,3.3091,3.3075,3.309,3.309,3.309,3.309,0,3.3085,3.308,3.309,3.3087,3.3083,3.3089,3.3084,3.3086,3.3088,3.3086,3.3092,3.3089,3.3093,3.3091,3.3093,3.3089,3.3088,3.3089,3.3089,3.3088,3.3088,3.3087,3.3088,3.3089,3.3089,3.3089,3.3089,0,3.3064,3.307,3.3067,3.3073,3.3075,3.3071,3.3076,3.3074,3.3077,3.3074,3.3074,3.3079,3.3077,3.308,3.3078,3.3079,3.3073,3.3074,3.3074,3.3074,3.307,3.307,3.3052,3.3051,3.3066,3.3066,3.3066,0,3.3052,3.3049,3.3056,3.3056,3.3058,3.3058,3.3058,3.3065,3.3065,3.3068,3.3065,3.3065,3.3064,3.3061,3.3064,3.3063,3.3064,3.3058,3.3064,3.3064,3.3065,3.3065,3.3066,3.3057,3.3056,3.3056,3.3056,0,3.303,3.3035,3.3036,3.3039,3.304,3.3042,3.3044,3.3043,3.3051,3.3051,3.3051,3.3051,3.3051,3.305,3.305,3.3051,3.3055,3.3055,3.3054,3.3053,3.3053,3.3054,3.3071,3.3055,3.3055,3.3055,3.3055,3.3055,3.3014,3.3013,3.3019,3.302,3.3024,3.3026,3.3026,3.303,3.3031,3.3033,3.3037,3.3036,3.3039,3.304,3.3041,3.304,3.3042,3.3041,3.304,3.304,3.304,3.3053,3.304,3.304,3.304,3.304,3.304,0,3.2994,3.2999,3.3001,3.3005,3.3007,3.3013,3.3017,3.3018,3.3018,3.3021,3.3022,3.3022,3.3023,3.3027,3.3027,3.3026,3.3028,3.3026,3.3026,3.3027,3.3037,3.3038,3.3025,3.3025,3.3025,3.3025,3.3025,3.3025,3.2983,3.2982,3.2988,3.2989,3.2993,3.2995,3.2997,3.2999,3.3002,3.3004,3.3005,3.3008,3.3012,3.3014,3.3014,3.3016,3.3016,3.3013,3.3015,3.3024,3.3026,3.3027,3.3028,3.3013,3.3013,3.3005,3.3005,3.3005]}]]